Time,TemperatureF,DewpointF,PressureIn,WindDirection,WindDirectionDegrees,WindSpeedMPH,WindSpeedGustMPH,Humidity,HourlyPrecipIn,Conditions,Clouds,dailyrainin,SolarRadiationWatts/m^2,SoftwareType,DateUTC
2013-09-02 00:00:00,55.0,52.0,-100.00,NW,326,5.0,11.0,91,0.00,,,0.01,0.000000,,2013-09-02 05:00:00,
2013-09-02 00:23:00,55.0,52.0,-100.00,NW,326,5.0,11.0,91,0.00,,,0.01,0.000000,,2013-09-02 05:23:00,
2013-09-02 00:34:00,55.0,52.0,-100.00,NW,326,5.0,11.0,91,0.00,,,0.01,0.000000,,2013-09-02 05:34:00,
2013-09-02 00:44:00,55.0,52.0,-100.00,NW,326,5.0,11.0,91,0.00,,,0.01,0.000000,,2013-09-02 05:44:00,
2013-09-02 00:52:00,55.0,52.0,-100.00,NW,326,5.0,11.0,91,0.00,,,0.01,0.000000,,2013-09-02 05:52:00,
2013-09-02 01:00:00,55.0,52.0,-100.00,NNW,333,4.0,11.0,90,0.00,,,0.01,0.000000,,2013-09-02 06:00:00,
2013-09-02 01:22:00,55.0,52.0,-100.00,NNW,333,4.0,11.0,90,0.00,,,0.01,0.000000,,2013-09-02 06:22:00,
2013-09-02 01:32:00,55.0,52.0,-100.00,NNW,333,4.0,11.0,90,0.00,,,0.01,0.000000,,2013-09-02 06:32:00,
2013-09-02 01:43:00,55.0,52.0,-100.00,NNW,333,4.0,11.0,90,0.00,,,0.01,0.000000,,2013-09-02 06:43:00,
2013-09-02 01:52:00,55.0,52.0,-100.00,NNW,333,4.0,11.0,90,0.00,,,0.01,0.000000,,2013-09-02 06:52:00,
2013-09-02 02:00:00,53.0,51.0,-100.00,North,356,5.0,12.0,94,0.00,,,0.01,0.000000,,2013-09-02 07:00:00,
2013-09-02 02:22:00,53.0,51.0,-100.00,North,356,5.0,12.0,94,0.00,,,0.01,0.000000,,2013-09-02 07:22:00,
2013-09-02 02:33:00,53.0,51.0,-100.00,North,356,5.0,12.0,94,0.00,,,0.01,0.000000,,2013-09-02 07:33:00,
2013-09-02 02:42:00,53.0,51.0,-100.00,North,356,5.0,12.0,94,0.00,,,0.01,0.000000,,2013-09-02 07:42:00,
2013-09-02 02:52:00,53.0,51.0,-100.00,North,356,5.0,12.0,94,0.00,,,0.01,0.000000,,2013-09-02 07:52:00,
2013-09-02 03:00:00,52.0,50.0,-100.00,North,351,4.0,11.0,93,0.00,,,0.01,0.000000,,2013-09-02 08:00:00,
2013-09-02 03:22:00,52.0,50.0,-100.00,North,351,4.0,11.0,93,0.00,,,0.01,0.000000,,2013-09-02 08:22:00,
2013-09-02 03:32:00,52.0,50.0,-100.00,North,351,4.0,11.0,93,0.00,,,0.01,0.000000,,2013-09-02 08:32:00,
2013-09-02 03:42:00,52.0,50.0,-100.00,North,351,4.0,11.0,93,0.00,,,0.01,0.000000,,2013-09-02 08:42:00,
2013-09-02 03:52:00,52.0,50.0,-100.00,North,351,4.0,11.0,93,0.00,,,0.01,0.000000,,2013-09-02 08:52:00,
2013-09-02 04:00:00,52.0,50.0,-100.00,NNW,342,3.0,10.0,94,0.00,,,0.01,0.000000,,2013-09-02 09:00:00,
2013-09-02 04:22:00,52.0,50.0,-100.00,NNW,342,3.0,10.0,94,0.00,,,0.01,0.000000,,2013-09-02 09:22:00,
2013-09-02 04:34:00,52.0,50.0,-100.00,NNW,342,3.0,10.0,94,0.00,,,0.01,0.000000,,2013-09-02 09:34:00,
2013-09-02 04:44:00,52.0,50.0,-100.00,NNW,342,3.0,10.0,94,0.00,,,0.01,0.000000,,2013-09-02 09:44:00,
2013-09-02 04:53:00,52.0,50.0,-100.00,NNW,342,3.0,10.0,94,0.00,,,0.01,0.000000,,2013-09-02 09:53:00,
2013-09-02 05:00:00,52.0,51.0,-100.00,NNW,331,5.0,9.0,95,0.00,,,0.01,0.000000,,2013-09-02 10:00:00,
2013-09-02 05:23:00,52.0,51.0,-100.00,NNW,331,5.0,9.0,95,0.00,,,0.01,0.000000,,2013-09-02 10:23:00,
2013-09-02 05:33:00,52.0,51.0,-100.00,NNW,331,5.0,9.0,95,0.00,,,0.01,0.000000,,2013-09-02 10:33:00,
2013-09-02 05:42:00,52.0,51.0,-100.00,NNW,331,5.0,9.0,95,0.00,,,0.01,0.000000,,2013-09-02 10:42:00,
2013-09-02 05:53:00,52.0,51.0,-100.00,NNW,331,5.0,9.0,95,0.00,,,0.01,0.000000,,2013-09-02 10:53:00,
2013-09-02 06:00:00,52.0,51.0,-100.00,NNW,329,4.0,10.0,95,0.01,,,0.02,0.000000,,2013-09-02 11:00:00,
2013-09-02 06:22:00,52.0,51.0,-100.00,NNW,329,4.0,10.0,95,0.01,,,0.02,0.000000,,2013-09-02 11:22:00,
2013-09-02 06:33:00,52.0,51.0,-100.00,NNW,329,4.0,10.0,95,0.01,,,0.02,0.000000,,2013-09-02 11:33:00,
2013-09-02 06:42:00,52.0,51.0,-100.00,NNW,329,4.0,10.0,95,0.01,,,0.02,0.000000,,2013-09-02 11:42:00,
2013-09-02 06:52:00,52.0,51.0,-100.00,NNW,329,4.0,10.0,95,0.01,,,0.02,0.000000,,2013-09-02 11:52:00,
2013-09-02 07:00:00,51.0,50.0,-100.00,NNW,330,4.0,10.0,95,0.00,,,0.02,5.000000,,2013-09-02 12:00:00,
2013-09-02 07:21:00,51.0,50.0,-100.00,NNW,330,4.0,10.0,95,0.00,,,0.02,5.000000,,2013-09-02 12:21:00,
2013-09-02 07:32:00,51.0,50.0,-100.00,NNW,330,4.0,10.0,95,0.00,,,0.02,5.000000,,2013-09-02 12:32:00,
2013-09-02 07:43:00,51.0,50.0,-100.00,NNW,330,4.0,10.0,95,0.00,,,0.02,5.000000,,2013-09-02 12:43:00,
2013-09-02 07:52:00,51.0,50.0,-100.00,NNW,330,4.0,10.0,95,0.00,,,0.02,5.000000,,2013-09-02 12:52:00,
2013-09-02 08:00:00,51.0,49.0,-100.00,NNW,336,7.0,13.0,93,0.00,,,0.02,67.000000,,2013-09-02 13:00:00,
2013-09-02 08:22:00,51.0,49.0,-100.00,NNW,336,7.0,13.0,93,0.00,,,0.02,67.000000,,2013-09-02 13:22:00,
2013-09-02 08:32:00,51.0,49.0,-100.00,NNW,336,7.0,13.0,93,0.00,,,0.02,67.000000,,2013-09-02 13:32:00,
2013-09-02 08:42:00,51.0,49.0,-100.00,NNW,336,7.0,13.0,93,0.00,,,0.02,67.000000,,2013-09-02 13:42:00,
2013-09-02 08:52:00,51.0,49.0,-100.00,NNW,336,7.0,13.0,93,0.00,,,0.02,67.000000,,2013-09-02 13:52:00,
2013-09-02 09:00:00,53.0,48.0,-100.00,NNW,345,7.0,14.0,84,0.00,,,0.02,219.000000,,2013-09-02 14:00:00,
2013-09-02 09:22:00,53.0,48.0,-100.00,NNW,345,7.0,14.0,84,0.00,,,0.02,219.000000,,2013-09-02 14:22:00,
2013-09-02 09:32:00,53.0,48.0,-100.00,NNW,345,7.0,14.0,84,0.00,,,0.02,219.000000,,2013-09-02 14:32:00,
2013-09-02 09:43:00,53.0,48.0,-100.00,NNW,345,7.0,14.0,84,0.00,,,0.02,219.000000,,2013-09-02 14:43:00,
2013-09-02 09:52:00,53.0,48.0,-100.00,NNW,345,7.0,14.0,84,0.00,,,0.02,219.000000,,2013-09-02 14:52:00,
2013-09-02 10:00:00,52.0,47.0,-100.00,NNW,333,6.0,14.0,83,0.00,,,0.02,223.000000,,2013-09-02 15:00:00,
2013-09-02 10:23:00,52.0,47.0,-100.00,NNW,333,6.0,14.0,83,0.00,,,0.02,223.000000,,2013-09-02 15:23:00,
2013-09-02 10:34:00,52.0,47.0,-100.00,NNW,333,6.0,14.0,83,0.00,,,0.02,223.000000,,2013-09-02 15:34:00,
2013-09-02 10:45:00,52.0,47.0,-100.00,NNW,333,6.0,14.0,83,0.00,,,0.02,223.000000,,2013-09-02 15:45:00,
2013-09-02 10:55:00,52.0,47.0,-100.00,NNW,333,6.0,14.0,83,0.00,,,0.02,223.000000,,2013-09-02 15:55:00,
2013-09-02 11:00:00,54.0,48.0,-100.00,NNW,336,5.0,13.0,79,0.00,,,0.02,332.000000,,2013-09-02 16:00:00,
2013-09-02 11:43:00,54.0,48.0,-100.00,NNW,336,5.0,13.0,79,0.00,,,0.02,332.000000,,2013-09-02 16:43:00,
2013-09-02 11:53:00,54.0,48.0,-100.00,NNW,336,5.0,13.0,79,0.00,,,0.02,332.000000,,2013-09-02 16:53:00,
2013-09-02 12:00:00,53.0,47.0,-100.00,NNW,343,6.0,12.0,79,0.00,,,0.02,270.000000,,2013-09-02 17:00:00,
2013-09-02 12:45:00,53.0,47.0,-100.00,NNW,343,6.0,12.0,79,0.00,,,0.02,270.000000,,2013-09-02 17:45:00,
2013-09-02 12:52:00,53.0,47.0,-100.00,NNW,343,6.0,12.0,79,0.00,,,0.02,270.000000,,2013-09-02 17:52:00,
2013-09-02 13:00:00,54.0,47.0,-100.00,NNW,342,5.0,13.0,78,0.00,,,0.02,292.000000,,2013-09-02 18:00:00,
2013-09-02 13:42:00,54.0,47.0,-100.00,NNW,342,5.0,13.0,78,0.00,,,0.02,292.000000,,2013-09-02 18:42:00,
2013-09-02 13:52:00,54.0,47.0,-100.00,NNW,342,5.0,13.0,78,0.00,,,0.02,292.000000,,2013-09-02 18:52:00,
2013-09-02 14:00:00,55.0,47.0,-100.00,NW,306,6.0,12.0,73,0.00,,,0.02,379.000000,,2013-09-02 19:00:00,
2013-09-02 14:42:00,55.0,47.0,-100.00,NW,306,6.0,12.0,73,0.00,,,0.02,379.000000,,2013-09-02 19:42:00,
2013-09-02 14:52:00,55.0,47.0,-100.00,NW,306,6.0,12.0,73,0.00,,,0.02,379.000000,,2013-09-02 19:52:00,
2013-09-02 15:00:00,56.0,46.0,-100.00,NW,313,5.0,10.0,70,0.00,,,0.02,424.000000,,2013-09-02 20:00:00,
2013-09-02 15:22:00,56.0,46.0,-100.00,NW,313,5.0,10.0,70,0.00,,,0.02,424.000000,,2013-09-02 20:22:00,
2013-09-02 15:33:00,56.0,46.0,-100.00,NW,313,5.0,10.0,70,0.00,,,0.02,424.000000,,2013-09-02 20:33:00,
2013-09-02 15:42:00,56.0,46.0,-100.00,NW,313,5.0,10.0,70,0.00,,,0.02,424.000000,,2013-09-02 20:42:00,
2013-09-02 15:52:00,56.0,46.0,-100.00,NW,313,5.0,10.0,70,0.00,,,0.02,424.000000,,2013-09-02 20:52:00,
2013-09-02 16:00:00,57.0,46.0,-100.00,NW,315,5.0,12.0,67,0.00,,,0.02,490.000000,,2013-09-02 21:00:00,
2013-09-02 16:23:00,57.0,46.0,-100.00,NW,315,5.0,12.0,67,0.00,,,0.02,490.000000,,2013-09-02 21:23:00,
2013-09-02 16:34:00,57.0,46.0,-100.00,NW,315,5.0,12.0,67,0.00,,,0.02,490.000000,,2013-09-02 21:34:00,
2013-09-02 16:44:00,57.0,46.0,-100.00,NW,315,5.0,12.0,67,0.00,,,0.02,490.000000,,2013-09-02 21:44:00,
2013-09-02 16:55:00,57.0,46.0,-100.00,NW,315,5.0,12.0,67,0.00,,,0.02,490.000000,,2013-09-02 21:55:00,
2013-09-02 17:00:00,58.0,49.0,-100.00,NNW,341,5.0,9.0,71,0.00,,,0.02,310.000000,,2013-09-02 22:00:00,
2013-09-02 17:24:00,58.0,49.0,-100.00,NNW,341,5.0,9.0,71,0.00,,,0.02,310.000000,,2013-09-02 22:24:00,
2013-09-02 17:33:00,58.0,49.0,-100.00,NNW,341,5.0,9.0,71,0.00,,,0.02,310.000000,,2013-09-02 22:33:00,
2013-09-02 17:44:00,58.0,49.0,-100.00,NNW,341,5.0,9.0,71,0.00,,,0.02,310.000000,,2013-09-02 22:44:00,
2013-09-02 17:54:00,58.0,49.0,-100.00,NNW,341,5.0,9.0,71,0.00,,,0.02,310.000000,,2013-09-02 22:54:00,
2013-09-02 18:00:00,59.0,48.0,-100.00,NNW,337,3.0,14.0,68,0.00,,,0.02,301.000000,,2013-09-02 23:00:00,
2013-09-02 18:22:00,59.0,48.0,-100.00,NNW,337,3.0,14.0,68,0.00,,,0.02,301.000000,,2013-09-02 23:22:00,
2013-09-02 18:34:00,59.0,48.0,-100.00,NNW,337,3.0,14.0,68,0.00,,,0.02,301.000000,,2013-09-02 23:34:00,
2013-09-02 18:42:00,59.0,48.0,-100.00,NNW,337,3.0,14.0,68,0.00,,,0.02,301.000000,,2013-09-02 23:42:00,
2013-09-02 18:53:00,59.0,48.0,-100.00,NNW,337,3.0,14.0,68,0.00,,,0.02,301.000000,,2013-09-02 23:53:00,
2013-09-02 19:00:00,57.0,48.0,-100.00,NNW,341,2.0,7.0,72,0.00,,,0.02,142.000000,,2013-09-03 00:00:00,
2013-09-02 19:22:00,57.0,48.0,-100.00,NNW,341,2.0,7.0,72,0.00,,,0.02,142.000000,,2013-09-03 00:22:00,
2013-09-02 19:32:00,57.0,48.0,-100.00,NNW,341,2.0,7.0,72,0.00,,,0.02,142.000000,,2013-09-03 00:32:00,
2013-09-02 19:42:00,57.0,48.0,-100.00,NNW,341,2.0,7.0,72,0.00,,,0.02,142.000000,,2013-09-03 00:42:00,
2013-09-02 19:52:00,57.0,48.0,-100.00,NNW,341,2.0,7.0,72,0.00,,,0.02,142.000000,,2013-09-03 00:52:00,
2013-09-02 20:00:00,51.0,48.0,-100.00,South,173,0.0,3.0,91,0.00,,,0.02,10.000000,,2013-09-03 01:00:00,
2013-09-02 20:22:00,51.0,48.0,-100.00,South,173,0.0,3.0,91,0.00,,,0.02,10.000000,,2013-09-03 01:22:00,
2013-09-02 20:32:00,51.0,48.0,-100.00,South,173,0.0,3.0,91,0.00,,,0.02,10.000000,,2013-09-03 01:32:00,
2013-09-02 20:42:00,51.0,48.0,-100.00,South,173,0.0,3.0,91,0.00,,,0.02,10.000000,,2013-09-03 01:42:00,
2013-09-02 20:52:00,51.0,48.0,-100.00,South,173,0.0,3.0,91,0.00,,,0.02,10.000000,,2013-09-03 01:52:00,
2013-09-02 21:00:00,47.0,45.0,-100.00,SSW,202,0.0,0.0,94,0.00,,,0.01,0.000000,,2013-09-03 02:00:00,
2013-09-02 21:42:00,47.0,45.0,-100.00,SSW,202,0.0,0.0,94,0.00,,,0.01,0.000000,,2013-09-03 02:42:00,
2013-09-02 21:52:00,47.0,45.0,-100.00,SSW,202,0.0,0.0,94,0.00,,,0.01,0.000000,,2013-09-03 02:52:00,
2013-09-02 22:00:00,45.0,44.0,-100.00,ENE,74,0.0,2.0,95,0.00,,,0.01,0.000000,,2013-09-03 03:00:00,
2013-09-02 22:23:00,45.0,44.0,-100.00,ENE,74,0.0,2.0,95,0.00,,,0.01,0.000000,,2013-09-03 03:23:00,
2013-09-02 22:35:00,45.0,44.0,-100.00,ENE,74,0.0,2.0,95,0.00,,,0.01,0.000000,,2013-09-03 03:35:00,
2013-09-02 22:45:00,45.0,44.0,-100.00,ENE,74,0.0,2.0,95,0.00,,,0.01,0.000000,,2013-09-03 03:45:00,
2013-09-02 22:55:00,45.0,44.0,-100.00,ENE,74,0.0,2.0,95,0.00,,,0.01,0.000000,,2013-09-03 03:55:00,
2013-09-02 23:00:00,43.0,42.0,-100.00,NNE,30,0.0,0.0,95,0.00,,,0.01,0.000000,,2013-09-03 04:00:00,
2013-09-02 23:25:00,43.0,42.0,-100.00,NNE,30,0.0,0.0,95,0.00,,,0.01,0.000000,,2013-09-03 04:25:00,
2013-09-02 23:34:00,43.0,42.0,-100.00,NNE,30,0.0,0.0,95,0.00,,,0.01,0.000000,,2013-09-03 04:34:00,
2013-09-02 23:44:00,43.0,42.0,-100.00,NNE,30,0.0,0.0,95,0.00,,,0.01,0.000000,,2013-09-03 04:44:00,
2013-09-02 23:53:00,43.0,42.0,-100.00,NNE,30,0.0,0.0,95,0.00,,,0.01,0.000000,,2013-09-03 04:53:00,